This is the latest recevied weather packets stored in our database for station/object G6UIM. If no packets are shown the sender has not sent any weather packets the latest 10 day(s).
| Time | Temp. | Humidity | Pressure | Rain* | Wind** | Luminosity | Snow |
|---|---|---|---|---|---|---|---|
| 1777773017 | 10.56° C | 93% | 1011.2 hPa | 0 mm | - | 0 W/m² | - |
| 1777771817 | 10.56° C | 93% | 1011.4 hPa | 0 mm | - | 0 W/m² | - |
| 1777770617 | 10.56° C | 93% | 1011.5 hPa | 0 mm | - | 0 W/m² | - |
| 1777770017 | 10.56° C | 93% | 1011.5 hPa | 0 mm | - | 0 W/m² | - |
| 1777762816 | 11.11° C | 92% | 1012.4 hPa | 0 mm | - | 0 W/m² | - |
| 1777761617 | 11.11° C | 92% | 1012.3 hPa | 0 mm | - | 0 W/m² | - |
| 1777759817 | 11.11° C | 92% | 1012.6 hPa | 0 mm | - | 0 W/m² | - |
| 1777755657 | 10.56° C | 92% | 1012.7 hPa | 0 mm | - | 0 W/m² | - |
| 1777755017 | 10.56° C | 92% | 1012.6 hPa | 0 mm | - | 0 W/m² | - |
| 1777753817 | 10.56° C | 92% | 1012.5 hPa | 0 mm | - | 0 W/m² | - |
| 1777753257 | 11.11° C | 92% | 1012.4 hPa | 0 mm | - | 0 W/m² | - |
| 1777751417 | 11.11° C | 92% | 1012.2 hPa | 0 mm | - | 0 W/m² | - |
| 1777749617 | 11.11° C | 92% | 1012.1 hPa | 0 mm | - | 0 W/m² | - |
| 1777746617 | 11.11° C | 92% | 1012.4 hPa | 0.25 mm | - | 18 W/m² | - |
| 1777745417 | 11.11° C | 92% | 1012.5 hPa | 0.25 mm | - | 31 W/m² | - |
| 1777744217 | 11.11° C | 92% | 1012.6 hPa | 0.25 mm | - | 41 W/m² | - |
| 1777741817 | 10.56° C | 92% | 1013.1 hPa | 0.76 mm | - | 29 W/m² | - |
| 1777740617 | 10.56° C | 91% | 1013.3 hPa | 1.02 mm | - | 39 W/m² | - |
| 1777732837 | 10.56° C | 91% | 1014.8 hPa | 5.08 mm | - | 88 W/m² | - |
| 1777727416 | 11.11° C | 90% | 1015.3 hPa | 0.76 mm | - | 57 W/m² | - |
| 1777726817 | 11.67° C | 90% | 1015.3 hPa | 0.51 mm | - | 50 W/m² | - |
| 1777725016 | 11.67° C | 90% | 1015.8 hPa | 0.51 mm | - | 130 W/m² | - |
| 1777722616 | 11.67° C | 89% | 1016.4 hPa | 0 mm | - | 68 W/m² | - |
| 1777719016 | 12.22° C | 86% | 1017.2 hPa | 0 mm | - | 75 W/m² | - |
| 1777710016 | 12.78° C | 85% | 1018.1 hPa | 0 mm | - | 403 W/m² | - |
* Rain latest hour (hover to see other rain measurements)
** Current wind speed in m/s (hover to see current wind gust speed)